ALGONAWA Weather Reports


time (UTC)temp
F
wind
direction
speed
knots
gust
knots
rain 1hr
in
rain 24hr
in
rain mn
in
humidity
%
barometer
mb
20260503211053 78 13 2.6 5.2 0.00 0.00 0.00 48 1013.4
20260503210547 78 338 1.7 4.3 0.00 0.00 0.00 47 1013.6
20260503210055 79 36 1.7 4.3 0.00 0.00 0.00 46 1013.6
20260503205548 79 326 1.7 4.3 0.00 0.00 0.00 47 1013.6
20260503205048 79 236 0.9 4.3 0.00 0.00 0.00 48 1013.7
20260503204559 79 333 0.9 4.3 0.00 0.00 0.00 49 1013.7
20260503204048 79 342 0.9 3.5 0.00 0.00 0.00 48 1013.8
20260503203548 79 356 0.9 3.5 0.00 0.00 0.00 49 1013.8
20260503203053 79 350 0.9 3.5 0.00 0.00 0.00 51 1014.0
20260503202550 79 94 1.7 3.5 0.00 0.00 0.00 48 1013.9
20260503202049 80 348 0.9 3.5 0.00 0.00 0.00 52 1013.9
20260503201555 80 304 1.7 3.5 0.00 0.00 0.00 52 1013.9
20260503201048 80 12 0.9 2.6 0.00 0.00 0.00 52 1014.0
20260503200548 79 168 0.9 4.3 0.00 0.00 0.00 53 1014.0
20260503200055 78 18 0.9 4.3 0.00 0.00 0.00 50 1014.1
20260503195548 79 55 1.7 4.3 0.00 0.00 0.00 52 1014.2
20260503195048 79 238 0.9 3.5 0.00 0.00 0.00 51 1014.3
20260503194555 79 20 0.9 3.5 0.00 0.00 0.00 55 1014.3
20260503194047 79 244 1.7 3.5 0.00 0.00 0.00 56 1014.3
20260503193547 79 277 0.9 3.5 0.00 0.00 0.00 54 1014.3
20260503193057 78 52 0.0 1.7 0.00 0.00 0.00 52 1014.4
20260503192547 77 338 0.9 3.5 0.00 0.00 0.00 55 1014.4
20260503192048 76 112 1.7 5.2 0.00 0.00 0.00 55 1014.6
20260503191551 76 304 1.7 5.2 0.00 0.00 0.00 54 1014.7
20260503191048 76 11 0.9 3.5 0.00 0.00 0.00 55 1014.7
20260503190549 76 351 0.0 3.5 0.00 0.00 0.00 55 1014.7
20260503190056 76 337 1.7 4.3 0.00 0.00 0.00 53 1014.9
20260503185548 76 56 0.9 4.3 0.00 0.00 0.00 57 1014.9
20260503185047 76 340 1.7 4.3 0.00 0.00 0.00 54 1014.8
20260503184603 76 283 0.9 3.5 0.00 0.00 0.00 60 1014.9
20260503184047 75 278 0.0 5.2 0.00 0.00 0.00 63 1014.9
20260503183547 74 63 1.7 5.2 0.00 0.00 0.00 58 1014.9
20260503183048 74 340 2.6 5.2 0.00 0.00 0.00 56 1015.1
20260503182548 73 46 2.6 5.2 0.00 0.00 0.00 58 1015.1
20260503182047 73 64 2.6 5.2 0.00 0.00 0.00 57 1015.2
20260503181559 72 89 2.6 5.2 0.00 0.00 0.00 57 1015.2
20260503181047 72 4 2.6 5.2 0.00 0.00 0.00 57 1015.3
20260503180547 72 4 1.7 5.2 0.00 0.00 0.00 59 1015.2
20260503180055 71 18 2.6 6.1 0.00 0.00 0.00 59 1015.3
20260503175548 71 56 2.6 6.1 0.00 0.00 0.00 59 1015.5
20260503175048 71 51 2.6 6.1 0.00 0.00 0.00 61 1015.5
20260503174606 70 47 4.3 6.1 0.00 0.00 0.00 62 1015.5
20260503174049 69 65 2.6 5.2 0.00 0.00 0.00 61 1015.5
20260503173548 69 51 2.6 7.0 0.00 0.00 0.00 64 1015.7
20260503173055 69 27 3.5 7.8 0.00 0.00 0.00 63 1015.6
20260503172549 68 79 3.5 7.8 0.00 0.00 0.00 63 1015.7
20260503172047 68 75 3.5 7.8 0.00 0.00 0.00 66 1015.8
20260503171554 68 34 4.3 7.0 0.00 0.00 0.00 68 1015.6
20260503171047 67 43 2.6 7.8 0.00 0.00 0.00 68 1015.9
20260503170547 67 107 4.3 7.8 0.00 0.00 0.00 68 1015.8
20260503150546 59 50 0.0 0.9 0.00 0.00 0.00 83 1016.1
20260503131047 51 0 0.0 0.9 0.00 0.00 0.00 94 1015.9
20260503130547 51 0 0.0 0.9 0.00 0.00 0.00 94 1015.9
20260503110547 52 0 0.0 0.9 0.00 0.00 0.00 91 1016.1
20260503100106 53 0 0.0 0.0 0.00 0.00 0.00 87 1016.2
20260503081556 55 0 0.0 0.0 0.00 0.00 0.00 84 1016.4
20260503081046 55 0 0.0 0.0 0.00 0.00 0.00 84 1016.4
20260503080549 55 0 0.0 0.0 0.00 0.00 0.00 83 1016.5
20260503072545 57 0 0.0 0.0 0.00 0.00 0.00 79 1016.4
20260503072050 58 0 0.0 0.0 0.00 0.00 0.00 78 1016.3
20260503071551 58 0 0.0 0.0 0.00 0.00 0.00 77 1016.3
20260503071045 59 0 0.0 0.0 0.00 0.00 0.00 77 1016.3
20260503070548 59 0 0.0 0.9 0.00 0.00 0.00 76 1016.3
20260503055045 66 0 0.0 0.9 0.00 0.00 0.00 57 1015.9
20260503054559 66 0 0.0 1.7 0.00 0.00 0.00 56 1015.9
20260503054045 66 39 0.9 1.7 0.00 0.00 0.00 56 1015.9
20260503053547 66 27 0.9 1.7 0.00 0.00 0.00 55 1015.8
20260503053053 67 14 0.9 1.7 0.00 0.00 0.00 55 1015.8
20260503052548 67 12 0.9 4.3 0.00 0.00 0.00 55 1015.9
20260503052047 67 28 0.9 4.3 0.00 0.00 0.00 55 1015.9
20260503051553 67 60 1.7 4.3 0.00 0.00 0.00 56 1015.8
20260503051047 66 1 0.9 2.6 0.00 0.00 0.00 57 1015.8
20260503050546 66 0 0.0 0.0 0.00 0.00 0.00 58 1015.8
20260503050055 66 0 0.0 0.0 0.00 0.00 0.00 58 1015.8
20260503045546 66 0 0.0 1.7 0.00 0.00 0.00 60 1015.7
20260503045046 66 0 0.0 1.7 0.00 0.00 0.00 60 1015.7
20260503044556 67 0 0.9 1.7 0.00 0.00 0.00 60 1015.6
20260503044046 67 0 0.0 1.7 0.00 0.00 0.00 60 1015.6
20260503043545 67 360 0.0 1.7 0.00 0.00 0.00 59 1015.5
20260503043117 67 16 0.9 1.7 0.00 0.00 0.00 59 1015.6
20260503042545 67 23 0.0 3.5 0.00 0.00 0.00 59 1015.5
20260503042045 67 8 1.7 3.5 0.00 0.00 0.00 60 1015.5
20260503041554 67 357 0.9 2.6 0.00 0.00 0.00 60 1015.5
20260503041047 67 16 0.9 2.6 0.00 0.00 0.00 60 1015.4
20260503040545 68 333 0.9 1.7 0.00 0.00 0.00 60 1015.2
20260503040051 68 350 0.0 3.5 0.00 0.00 0.00 60 1015.2
20260503035548 68 0 0.0 3.5 0.00 0.00 0.00 60 1015.0
20260503035048 68 16 0.9 3.5 0.00 0.00 0.00 60 1015.0
20260503034608 69 49 1.7 4.3 0.00 0.00 0.00 59 1014.9
20260503034046 69 8 1.7 4.3 0.00 0.00 0.00 59 1014.9
20260503033546 69 8 1.7 5.2 0.00 0.00 0.00 60 1014.9
20260503033056 69 39 1.7 5.2 0.00 0.00 0.00 59 1014.8
20260503032545 69 37 1.7 5.2 0.00 0.00 0.00 59 1014.9
20260503032045 70 25 3.5 5.2 0.00 0.00 0.00 59 1014.7
20260503031557 70 30 1.7 5.2 0.00 0.00 0.00 60 1014.6
20260503031046 70 73 0.9 3.5 0.00 0.00 0.00 61 1014.6
20260503030545 70 355 0.9 3.5 0.00 0.00 0.00 61 1014.6
20260503030057 70 12 0.0 2.6 0.00 0.00 0.00 60 1014.4
20260503025546 71 17 0.9 5.2 0.00 0.00 0.00 59 1014.5
20260503025045 71 30 1.7 5.2 0.00 0.00 0.00 59 1014.5
20260503024554 72 26 1.7 4.3 0.00 0.00 0.00 58 1014.4
20260503024047 72 19 0.9 6.1 0.00 0.00 0.00 58 1014.3
20260503023545 72 42 2.6 6.1 0.00 0.00 0.00 56 1014.2
20260503023056 73 30 1.7 6.1 0.00 0.00 0.00 57 1014.2
20260503022547 73 6 2.6 6.1 0.00 0.00 0.00 56 1014.3
20260503022050 73 21 1.7 5.2 0.00 0.00 0.00 56 1014.2
20260503021558 73 32 2.6 6.1 0.00 0.00 0.00 55 1014.3
20260503021046 73 6 2.6 6.1 0.00 0.00 0.00 55 1014.3
20260503020546 74 65 2.6 6.1 0.00 0.00 0.00 55 1014.3
20260503020055 74 4 3.5 7.0 0.00 0.00 0.00 54 1014.4
20260503015545 74 11 1.7 7.8 0.00 0.00 0.00 54 1014.3
20260503015047 74 27 2.6 7.8 0.00 0.00 0.00 54 1014.3
20260503014605 74 28 3.5 7.8 0.00 0.00 0.00 53 1014.4
20260503014046 75 27 2.6 7.8 0.00 0.00 0.00 53 1014.3
20260503013545 75 21 2.6 7.8 0.00 0.00 0.00 52 1014.4
20260503013056 75 355 3.5 7.8 0.00 0.00 0.00 53 1014.3
20260503012546 75 352 2.6 7.0 0.00 0.00 0.00 53 1014.4
20260503012046 75 4 3.5 7.0 0.00 0.00 0.00 53 1014.5
20260503011552 75 341 0.9 7.8 0.00 0.00 0.00 52 1014.6
20260503011048 75 24 4.3 7.8 0.00 0.00 0.00 52 1014.5
20260503010545 75 25 0.9 3.5 0.00 0.00 0.00 52 1014.5
20260503010053 75 343 1.7 7.0 0.00 0.00 0.00 52 1014.5
20260503005546 75 356 3.5 7.0 0.00 0.00 0.00 52 1014.6
20260503005046 75 342 1.7 7.8 0.00 0.00 0.00 52 1014.5
20260503004555 75 352 3.5 7.8 0.00 0.00 0.00 52 1014.6
20260503004047 75 5 2.6 8.7 0.00 0.00 0.00 52 1014.6
20260503003545 75 56 4.3 8.7 0.00 0.00 0.00 52 1014.7
20260503003104 75 15 3.5 7.0 0.00 0.00 0.00 52 1014.7
20260503002546 75 34 2.6 7.0 0.00 0.00 0.00 51 1014.7
20260503002045 76 32 3.5 7.0 0.00 0.00 0.00 51 1014.5
20260503001608 76 46 4.3 7.0 0.00 0.00 0.00 53 1014.6
20260503001045 75 26 4.3 7.0 0.00 0.00 0.00 52 1014.5
20260503000546 75 47 4.3 7.0 0.00 0.00 0.00 51 1014.6
20260503000055 76 352 3.5 7.0 0.00 0.00 0.00 51 1014.6
20260502235545 76 14 2.6 6.1 0.00 0.00 0.00 53 1014.6
20260502235047 76 221 2.6 4.3 0.00 0.00 0.00 51 1014.7
20260502234553 76 39 0.9 6.1 0.00 0.00 0.00 51 1014.8
20260502234047 76 346 2.6 6.1 0.00 0.00 0.00 50 1014.9
20260502233547 76 359 0.9 3.5 0.00 0.00 0.00 50 1015.0
20260502233051 76 19 0.9 3.5 0.00 0.00 0.00 51 1015.1
20260502232545 76 302 0.9 3.5 0.00 0.00 0.00 51 1015.0
20260502232046 76 33 0.9 3.5 0.00 0.00 0.00 51 1015.2
20260502231548 76 347 0.9 3.5 0.00 0.00 0.00 52 1015.2
20260502231047 75 49 1.7 5.2 0.00 0.00 0.00 57 1015.3
20260502230547 75 314 1.7 5.2 0.00 0.00 0.00 56 1015.3
20260502230053 75 318 0.9 5.2 0.00 0.00 0.00 56 1015.5
20260502225546 75 23 1.7 5.2 0.00 0.00 0.00 55 1015.5
20260502225045 75 66 1.7 5.2 0.00 0.00 0.00 57 1015.7
20260502224547 75 342 1.7 5.2 0.00 0.00 0.00 58 1015.7
20260502224045 75 352 1.7 5.2 0.00 0.00 0.00 56 1015.8
20260502223545 75 266 1.7 4.3 0.00 0.00 0.00 54 1015.7
20260502223051 75 0 0.0 3.5 0.00 0.00 0.00 56 1015.8
20260502222545 75 323 0.9 3.5 0.00 0.00 0.00 58 1016.0
20260502222048 75 333 0.9 4.3 0.00 0.00 0.00 59 1016.1
20260502221546 75 233 1.7 4.3 0.00 0.00 0.00 57 1016.0
20260502221047 75 264 0.9 4.3 0.00 0.00 0.00 57 1016.0
20260502220547 75 316 0.9 3.5 0.00 0.00 0.00 58 1016.1
20260502220052 75 314 0.9 3.5 0.00 0.00 0.00 59 1016.2
20260502215545 75 233 1.7 3.5 0.00 0.00 0.00 56 1016.1
20260502215045 75 53 0.9 6.1 0.00 0.00 0.00 58 1016.1
20260502214558 74 207 2.6 6.1 0.00 0.00 0.00 57 1016.2
20260502214046 74 238 1.7 5.2 0.00 0.00 0.00 56 1016.2
20260502213546 75 26 0.9 4.3 0.00 0.00 0.00 59 1016.3
20260502213051 74 351 0.9 4.3 0.00 0.00 0.00 59 1016.3
20260502212545 74 239 1.7 5.2 0.00 0.00 0.00 59 1016.4
20260502212046 73 209 0.9 5.2 0.00 0.00 0.00 60 1016.5
20260502211551 74 281 1.7 4.3 0.00 0.00 0.00 58 1016.4
20260502211431 73 12 0.9 4.3 0.00 0.00 0.00 60 1016.6